• In Lithuania
  • List of Countries
  • For 7 days
  • Water Temperature
  • Satellite Maps
  • Weather Map
  • Weather Widgets
  • user-avatar
    Login

    Hourly Weather Morley

    Today, 21 January, Sunday

    Time Temperature Precipitation Wind Pressure Humidity
    00:00 0°C° 0 mm 1 mps 749 mmHg 84%
    01:00 0°C° 0 mm 1 mps 749 mmHg 83%
    02:00 +1°C° 0 mm 1 mps 750 mmHg 82%
    03:00 +1°C° 0 mm 1 mps 750 mmHg 80%
    04:00 +1°C° 0 mm 1 mps 750 mmHg 81%
    05:00 +1°C° 0 mm 1 mps 750 mmHg 81%
    06:00 +2°C° 0 mm 1 mps 750 mmHg 81%
    07:00 +1°C° 0.5 mm 2 mps 750 mmHg 83%
    08:00 +1°C° 0.5 mm 2 mps 750 mmHg 85%
    09:00 0°C° 0.5 mm 3 mps 750 mmHg 88%
    10:00 -1°C° 0.9 mm 4 mps 749 mmHg 89%
    11:00 -1°C° 0.9 mm 5 mps 749 mmHg 90%
    12:00 -2°C° 0.9 mm 6 mps 748 mmHg 91%
    13:00 -2°C° 0.7 mm 6 mps 747 mmHg 93%
    14:00 -2°C° 0.7 mm 6 mps 746 mmHg 94%
    15:00 -2°C° 0.7 mm 6 mps 745 mmHg 95%
    16:00 -1°C° 1.3 mm 5 mps 745 mmHg 96%
    17:00 -1°C° 1.3 mm 4 mps 744 mmHg 97%
    18:00 +1°C° 1.3 mm 3 mps 744 mmHg 98%
    19:00 +1°C° 0.3 mm 3 mps 743 mmHg 98%
    20:00 +1°C° 0.3 mm 3 mps 743 mmHg 98%
    21:00 +2°C° 0.3 mm 3 mps 743 mmHg 99%
    22:00 +3°C° 0 mm 4 mps 743 mmHg 98%
    23:00 +2°C° 0 mm 5 mps 743 mmHg 98%

    Tomorrow, 22 January, Monday

    Time Temperature Precipitation Wind Pressure Humidity
    00:00 +3°C° 0 mm 5 mps 744 mmHg 97%
    01:00 +3°C° 0 mm 5 mps 744 mmHg 96%
    02:00 +2°C° 0 mm 5 mps 745 mmHg 94%
    03:00 +3°C° 0 mm 4 mps 745 mmHg 93%
    04:00 +3°C° 0 mm 4 mps 746 mmHg 92%
    05:00 +3°C° 0 mm 4 mps 746 mmHg 91%
    06:00 +1°C° 0 mm 4 mps 747 mmHg 90%
    07:00 +1°C° 0 mm 4 mps 748 mmHg 90%
    08:00 +1°C° 0 mm 4 mps 748 mmHg 90%
    09:00 +1°C° 0 mm 4 mps 748 mmHg 90%
    10:00 +3°C° 0 mm 4 mps 749 mmHg 89%
    11:00 +4°C° 0 mm 4 mps 750 mmHg 89%
    12:00 +5°C° 0 mm 5 mps 750 mmHg 88%
    13:00 +5°C° 0 mm 5 mps 750 mmHg 88%
    14:00 +5°C° 0 mm 4 mps 751 mmHg 88%
    15:00 +5°C° 0 mm 4 mps 751 mmHg 89%
    16:00 +4°C° 0 mm 4 mps 751 mmHg 89%
    17:00 +3°C° 0 mm 3 mps 752 mmHg 90%
    18:00 +3°C° 0 mm 3 mps 752 mmHg 90%
    19:00 +2°C° 0 mm 3 mps 752 mmHg 90%
    20:00 +2°C° 0 mm 3 mps 752 mmHg 90%
    21:00 +2°C° 0 mm 3 mps 753 mmHg 90%
    22:00 +2°C° 0 mm 3 mps 752 mmHg 90%
    23:00 +2°C° 0 mm 3 mps 752 mmHg 90%

    Day after tomorrow, 23 January, Tuesday

    Time Temperature Precipitation Wind Pressure Humidity
    00:00 +2°C° 0 mm 3 mps 752 mmHg 90%
    01:00 +1°C° 0 mm 4 mps 752 mmHg 91%
    02:00 +1°C° 0 mm 4 mps 752 mmHg 91%
    03:00 +1°C° 0 mm 4 mps 751 mmHg 92%
    04:00 +1°C° 0 mm 4 mps 751 mmHg 92%
    05:00 +3°C° 0 mm 4 mps 750 mmHg 93%
    06:00 +2°C° 0 mm 5 mps 750 mmHg 93%
    07:00 +3°C° 0 mm 5 mps 749 mmHg 93%
    08:00 +3°C° 0 mm 6 mps 749 mmHg 93%
    09:00 +4°C° 0 mm 6 mps 749 mmHg 93%
    10:00 +7°C° 0 mm 6 mps 748 mmHg 93%
    11:00 +8°C° 0 mm 6 mps 748 mmHg 92%
    12:00 +9°C° 0 mm 7 mps 747 mmHg 92%
    13:00 +9°C° 0.2 mm 7 mps 747 mmHg 91%
    14:00 +9°C° 0.2 mm 7 mps 747 mmHg 90%
    15:00 +10°C° 0.2 mm 7 mps 746 mmHg 89%
    16:00 +9°C° 0.5 mm 6 mps 746 mmHg 89%
    17:00 +9°C° 0.5 mm 6 mps 746 mmHg 90%
    18:00 +9°C° 0.5 mm 6 mps 746 mmHg 91%
    19:00 +9°C° 0.1 mm 6 mps 746 mmHg 91%
    20:00 +9°C° 0.1 mm 6 mps 745 mmHg 92%
    21:00 +9°C° 0.1 mm 5 mps 745 mmHg 92%
    22:00 +9°C° 0.3 mm 6 mps 745 mmHg 91%
    23:00 +9°C° 0.3 mm 6 mps 744 mmHg 90%

    24 January, Wednesday

    Time Temperature Precipitation Wind Pressure Humidity
    00:00 +10°C° 0.3 mm 7 mps 743 mmHg 89%
    01:00 +10°C° 0.6 mm 8 mps 742 mmHg 87%
    02:00 +10°C° 0.6 mm 9 mps 741 mmHg 85%
    03:00 +11°C° 0.6 mm 10 mps 740 mmHg 82%
    04:00 +9°C° 1.2 mm 10 mps 740 mmHg 82%
    05:00 +9°C° 1.2 mm 10 mps 739 mmHg 81%
    06:00 +9°C° 1.2 mm 11 mps 739 mmHg 81%
    07:00 +8°C° 0.6 mm 10 mps 740 mmHg 77%
    08:00 +7°C° 0.6 mm 9 mps 740 mmHg 74%
    09:00 +5°C° 0.6 mm 8 mps 741 mmHg 70%
    10:00 +6°C° 0 mm 8 mps 741 mmHg 69%
    11:00 +6°C° 0 mm 8 mps 742 mmHg 67%
    12:00 +6°C° 0 mm 8 mps 742 mmHg 65%
    13:00 +6°C° 0 mm 7 mps 742 mmHg 66%
    14:00 +6°C° 0 mm 7 mps 742 mmHg 67%
    15:00 +7°C° 0 mm 6 mps 742 mmHg 67%
    16:00 +5°C° 0 mm 6 mps 742 mmHg 70%
    17:00 +5°C° 0 mm 5 mps 742 mmHg 74%
    18:00 +5°C° 0 mm 5 mps 742 mmHg 77%
    19:00 +3°C° 0 mm 5 mps 742 mmHg 79%
    20:00 +3°C° 0 mm 5 mps 743 mmHg 80%
    21:00 +3°C° 0 mm 5 mps 743 mmHg 81%
    22:00 +3°C° 0 mm 5 mps 743 mmHg 82%
    23:00 +3°C° 0 mm 5 mps 742 mmHg 83%

    25 January, Thursday

    Time Temperature Precipitation Wind Pressure Humidity
    00:00 +3°C° 0 mm 5 mps 742 mmHg 83%
    01:00 +3°C° 0 mm 5 mps 742 mmHg 83%
    02:00 +3°C° 0 mm 5 mps 742 mmHg 83%
    03:00 +2°C° 0 mm 5 mps 741 mmHg 83%
    04:00 +2°C° 0 mm 5 mps 742 mmHg 83%
    05:00 +2°C° 0 mm 6 mps 742 mmHg 83%
    06:00 +2°C° 0 mm 6 mps 742 mmHg 82%
    07:00 +2°C° 0 mm 6 mps 742 mmHg 82%
    08:00 +2°C° 0 mm 6 mps 742 mmHg 81%
    09:00 +2°C° 0 mm 6 mps 743 mmHg 80%
    10:00 +3°C° 0 mm 7 mps 743 mmHg 76%
    11:00 +4°C° 0 mm 7 mps 743 mmHg 72%
    12:00 +5°C° 0 mm 8 mps 743 mmHg 68%
    13:00 +5°C° 0.1 mm 8 mps 742 mmHg 68%
    14:00 +5°C° 0.1 mm 7 mps 742 mmHg 69%
    15:00 +5°C° 0.1 mm 7 mps 742 mmHg 69%
    16:00 +4°C° 0.1 mm 7 mps 743 mmHg 73%
    17:00 +4°C° 0.1 mm 6 mps 743 mmHg 76%
    18:00 +3°C° 0.1 mm 5 mps 743 mmHg 80%
    19:00 +3°C° 0 mm 5 mps 744 mmHg 81%
    20:00 +3°C° 0 mm 5 mps 745 mmHg 83%
    21:00 +3°C° 0 mm 4 mps 745 mmHg 85%
    22:00 +3°C° 0 mm 4 mps 746 mmHg 87%
    23:00 +3°C° 0 mm 4 mps 747 mmHg 88%

    26 January, Friday

    Time Temperature Precipitation Wind Pressure Humidity
    00:00 +3°C° 0 mm 3 mps 747 mmHg 90%
    01:00 +2°C° 0 mm 3 mps 748 mmHg 91%
    02:00 +2°C° 0 mm 3 mps 749 mmHg 91%
    03:00 +2°C° 0 mm 3 mps 749 mmHg 91%
    04:00 +2°C° 0 mm 3 mps 751 mmHg 90%
    05:00 +1°C° 0 mm 4 mps 752 mmHg 89%
    06:00 +1°C° 0 mm 4 mps 753 mmHg 88%
    07:00 +1°C° 0 mm 4 mps 754 mmHg 86%
    08:00 +1°C° 0 mm 4 mps 755 mmHg 85%
    09:00 +3°C° 0 mm 4 mps 756 mmHg 84%
    10:00 +2°C° 0 mm 5 mps 757 mmHg 80%
    11:00 +3°C° 0 mm 5 mps 758 mmHg 77%
    12:00 +4°C° 0 mm 6 mps 759 mmHg 74%
    13:00 +3°C° 0 mm 5 mps 760 mmHg 73%
    14:00 +3°C° 0 mm 5 mps 760 mmHg 72%
    15:00 +4°C° 0 mm 4 mps 761 mmHg 71%
    16:00 +3°C° 0 mm 4 mps 762 mmHg 73%
    17:00 +2°C° 0 mm 3 mps 763 mmHg 75%
    18:00 +1°C° 0 mm 3 mps 763 mmHg 76%
    19:00 +2°C° 0 mm 2 mps 764 mmHg 77%
    20:00 +2°C° 0 mm 2 mps 765 mmHg 78%
    21:00 +1°C° 0 mm 2 mps 765 mmHg 79%
    22:00 +1°C° 0 mm 2 mps 766 mmHg 79%
    23:00 +1°C° 0 mm 1 mps 766 mmHg 79%
    Show more